Regional Weather Roundup
Issued by NWS

Home | Current Version | Previous Version | Graphics & Text | Print | Product List | Glossary On
Versions: 1 2 3 4 5 6 7 8 9 10 11 12 13 14 15 16 17 18 19 20 21 22 23 24 25 26 27 28 29 30 31 32 33 34 35 36 37 38 39 40 41 42 43 44 45 46 47 48 49 50
000
ASUS43 KOAX 031710
RWRNE

WEATHER ROUNDUP FOR NEBRASKA
NATIONAL WEATHER SERVICE OMAHA NE
1200 PM CDT MON AUG 03 2015

NOTES: SATELLITE DATA IS BEING USED TO AUGMENT CLOUD COVER ABOVE
       12000 FEET.
       "FAIR" INDICATES FEW OR NO CLOUDS BELOW 12,000 FEET WITH NO
       SIGNIFICANT WEATHER AND/OR OBSTRUCTIONS TO VISIBILITY.

  * THESE STATIONS DO NOT REPORT WEATHER SUCH AS RAIN...SNOW OR FOG.

NEZ001>004-019>022-054>056-031800-
NEBRASKA PANHANDLE

CITY           SKY/WX    TMP DP  RH WIND       PRES   REMARKS
SCOTTSBLUFF    MOSUNNY   78  61  55 SE9       30.03S
ALLIANCE       PTSUNNY   80  60  50 S14       30.04S
CHADRON        PTSUNNY   80  61  52 SE6       30.01S
KIMBALL        PTSUNNY   82  55  39 N5        30.07R
SIDNEY         PTSUNNY   83  57  41 SE6       30.06S
$$

NEZ057>060-069>072-079>082-031800-
SOUTHWEST NEBRASKA

CITY           SKY/WX    TMP DP  RH WIND       PRES   REMARKS
NORTH PLATTE   MOSUNNY   76  65  68 SE13      30.02S
IMPERIAL       PTSUNNY   83  61  47 E10       30.02S
LEXINGTON      MOSUNNY   80  64  58 E14G23    30.01F
MCCOOK         MOSUNNY   84  67  56 E13       30.00S
OGALLALA       SUNNY     80  65  59 SE10      30.03S
$$

NEZ005>010-023>029-035>040-094-031800-
NORTH CENTRAL NEBRASKA

CITY           SKY/WX    TMP DP  RH WIND       PRES   REMARKS
AINSWORTH      SUNNY     78  60  53 E6        30.05S
BROKEN BOW     MOSUNNY   79  59  50 SE9       30.02S
O`NEILL        SUNNY     77  59  54 E6        30.04R
ORD            MOSUNNY   78  61  55 E6        30.01R
THEDFORD       PTSUNNY   80  58  46 SE13G18   30.05S
$$

NEZ041-046>049-061>064-073>077-083>087-031800-
SOUTH CENTRAL NEBRASKA

CITY           SKY/WX    TMP DP  RH WIND       PRES   REMARKS
GRAND ISLAND   MOSUNNY   78  64  61 SE13      29.99F
AURORA         PTSUNNY   76  66  72 E12       29.99S
HASTINGS       MOSUNNY   79  63  57 E12       29.99F
HEBRON         MOSUNNY   79  67  66 E8        29.97F
HOLDREGE       SUNNY     78  64  63 E17       30.00F
KEARNEY *      MOSUNNY   79  63  57 E15G21    30.00F
YORK           MOSUNNY   75  66  73 SE10      29.98S
$$

NEZ011>018-030>034-042>045-031800-
NORTHEAST NEBRASKA

CITY           SKY/WX    TMP DP  RH WIND       PRES   REMARKS
NORFOLK        PTSUNNY   74  62  66 SE8       30.01R
ALBION         MOSUNNY   73  60  64 SE3       30.02F
BLAIR          CLOUDY    74  62  66 E7        29.99F
COLUMBUS *     CLOUDY    72  61  68 CALM      30.01R
FREMONT        CLOUDY    75  61  62 NE9       30.00F
TEKAMAH        PTSUNNY   75  64  68 SE6       29.98F
WAYNE          PTSUNNY   75  63  65 S7        30.01S
$$

NEZ050>053-065>068-078-088>093-031800-
SOUTHEAST NEBRASKA

CITY           SKY/WX    TMP DP  RH WIND       PRES   REMARKS
LINCOLN        PTSUNNY   79  61  53 E12       29.98F
OMAHA EPPLEY   CLOUDY    77  61  57 E7        29.99S
BEATRICE       MOSUNNY   78  67  69 E7        29.97F
FALLS CITY     MOSUNNY   76  69  79 E13       29.95F
NEBRASKA CITY  PTSUNNY   74  60  60 E5        29.98R
PLATTSMOUTH    CLOUDY    76  61  59 E3        29.99R
$$

NEZ044-045-051>053-067-031800-
OMAHA AREA

CITY           SKY/WX    TMP DP  RH WIND       PRES   REMARKS
OMAHA EPPLEY   CLOUDY    77  61  57 E7        29.99S
BLAIR          CLOUDY    74  62  66 E7        29.99F
FREMONT        CLOUDY    75  61  62 NE9       30.00F
MILLARD        CLOUDY    77  62  59 SE7       29.98S
OFFUTT AFB     CLOUDY    77  63  61 E5        29.99R
PLATTSMOUTH    CLOUDY    76  61  59 E3        29.99R
WAHOO          FAIR      72  65  79 CALM      29.98F
$$



USA.gov is the U.S. government's official web portal to all federal, state and local government web resources and services.